Location: Unspecified
(0.0000°N, 0.0000°E)
Time: 19:04:38
(UTC+00:00)

S-56A Canister/Altair - Pass Details

Date: 25 November 2019
Orbit: 633 x 2500 km, 38.9° (Epoch: 08 December)

Event Time Altitude Azimuth Distance (km) Brightness Sun altitude
Rises 09:37:30 0° 213° (SSW) 5,480 11.9 52.2°
Reaches altitude 10° 09:41:10 10° 206° (SSW) 4,688 11.7 52.9°
Maximum altitude 09:53:56 42° 139° (SE) 3,193 12.7 55.5°
Drops below altitude 10° 10:07:37 10° 73° (ENE) 5,050 12.1 58.1°
Sets 10:11:41 0° 67° (ENE) 5,930 12.2 58.8°
